Location: Alsip
(41.6689°N, 87.7387°W)
Time: 13:50:52
(UTC+00:00)

ALOS 2 - Pass Details

Date: 14 July 2020
Orbit: 630 x 632 km, 97.9° (Epoch: 05 August)

Event Time Altitude Azimuth Distance (km) Brightness Sun altitude
Exits shadow 05:37:30 54° 303° (WNW) 771 3.1 -26.6°
Drops below altitude 10° 05:41:11 10° 341° (NNW) 2,020 6.1 -26.6°
Sets 05:43:25 0° 344° (NNW) 2,933 7.3 -26.7°
